Time,TemperatureF,DewpointF,PressureIn,WindDirection,WindDirectionDegrees,WindSpeedMPH,WindSpeedGustMPH,Humidity,HourlyPrecipIn,Conditions,Clouds,dailyrainin,SoftwareType,DateUTC
2013-06-04 00:01:00,76.4,75.0,30.01,East,98,0.0,1.0,95,0.02,,,0.04,weatherlink.com 1.10,2013-06-04 04:01:00,
2013-06-04 00:16:00,76.5,75.0,30.00,ESE,102,0.0,1.0,96,0.01,,,0.04,weatherlink.com 1.10,2013-06-04 04:16:00,
2013-06-04 00:31:00,76.5,75.0,30.00,SE,129,0.0,1.0,96,0.01,,,0.04,weatherlink.com 1.10,2013-06-04 04:31:00,
2013-06-04 00:47:00,76.1,75.0,29.99,East,99,0.0,1.0,96,0.00,,,0.04,weatherlink.com 1.10,2013-06-04 04:47:00,
2013-06-04 01:01:00,75.9,75.0,29.99,East,96,0.0,0.0,96,0.00,,,0.04,weatherlink.com 1.10,2013-06-04 05:01:00,
2013-06-04 01:16:00,75.8,75.0,29.99,East,89,0.0,0.0,96,0.00,,,0.04,weatherlink.com 1.10,2013-06-04 05:16:00,
2013-06-04 01:31:00,75.9,75.0,29.99,ESE,110,0.0,1.0,96,0.00,,,0.04,weatherlink.com 1.10,2013-06-04 05:31:00,
2013-06-04 01:46:00,76.0,75.0,29.98,ESE,108,0.0,1.0,96,0.00,,,0.04,weatherlink.com 1.10,2013-06-04 05:46:00,
2013-06-04 02:01:00,76.1,75.0,29.98,ESE,118,0.0,1.0,96,0.00,,,0.04,weatherlink.com 1.10,2013-06-04 06:01:00,
2013-06-04 02:16:00,75.8,75.0,29.98,SSW,197,2.0,4.0,96,0.00,,,0.04,weatherlink.com 1.10,2013-06-04 06:16:00,
2013-06-04 02:32:00,74.2,73.0,29.98,SW,225,0.0,6.0,95,0.07,,,0.11,weatherlink.com 1.10,2013-06-04 06:32:00,
2013-06-04 02:47:00,73.5,72.0,29.96,ENE,75,0.0,2.0,96,0.11,,,0.15,weatherlink.com 1.10,2013-06-04 06:47:00,
2013-06-04 03:02:00,73.3,72.0,29.95,East,98,1.0,1.0,97,0.12,,,0.16,weatherlink.com 1.10,2013-06-04 07:02:00,
2013-06-04 03:17:00,73.3,72.0,29.95,East,97,0.0,0.0,97,0.12,,,0.16,weatherlink.com 1.10,2013-06-04 07:17:00,
2013-06-04 03:32:00,73.7,73.0,29.95,East,91,0.0,1.0,97,0.05,,,0.16,weatherlink.com 1.10,2013-06-04 07:32:00,
2013-06-04 03:47:00,73.8,73.0,29.95,East,85,0.0,1.0,97,0.01,,,0.16,weatherlink.com 1.10,2013-06-04 07:47:00,
2013-06-04 04:02:00,73.9,73.0,29.95,ESE,108,0.0,1.0,97,0.00,,,0.16,weatherlink.com 1.10,2013-06-04 08:02:00,
2013-06-04 04:17:00,73.9,73.0,29.94,East,93,0.0,1.0,97,0.00,,,0.16,weatherlink.com 1.10,2013-06-04 08:17:00,
2013-06-04 04:32:00,73.9,73.0,29.94,ESE,102,0.0,1.0,97,0.00,,,0.16,weatherlink.com 1.10,2013-06-04 08:32:00,
2013-06-04 04:47:00,74.0,73.0,29.94,ESE,122,0.0,1.0,97,0.00,,,0.16,weatherlink.com 1.10,2013-06-04 08:47:00,
2013-06-04 05:02:00,74.0,73.0,29.94,East,100,0.0,1.0,97,0.00,,,0.16,weatherlink.com 1.10,2013-06-04 09:02:00,
2013-06-04 05:17:00,74.1,74.0,29.94,East,99,0.0,1.0,98,0.00,,,0.16,weatherlink.com 1.10,2013-06-04 09:17:00,
2013-06-04 05:32:00,74.2,74.0,29.94,ESE,116,0.0,1.0,98,0.00,,,0.16,weatherlink.com 1.10,2013-06-04 09:32:00,
2013-06-04 05:47:00,74.0,73.0,29.94,ESE,111,1.0,1.0,98,0.00,,,0.16,weatherlink.com 1.10,2013-06-04 09:47:00,
2013-06-04 06:02:00,74.0,73.0,29.94,ESE,105,0.0,0.0,97,0.00,,,0.16,weatherlink.com 1.10,2013-06-04 10:02:00,
2013-06-04 06:17:00,73.9,73.0,29.94,East,96,0.0,0.0,97,0.00,,,0.16,weatherlink.com 1.10,2013-06-04 10:17:00,
2013-06-04 06:32:00,74.1,73.0,29.95,East,91,0.0,0.0,97,0.00,,,0.16,weatherlink.com 1.10,2013-06-04 10:32:00,
2013-06-04 06:47:00,74.2,73.0,29.95,ESE,110,0.0,1.0,97,0.00,,,0.16,weatherlink.com 1.10,2013-06-04 10:47:00,
2013-06-04 07:02:00,74.2,73.0,29.95,East,98,0.0,1.0,97,0.00,,,0.16,weatherlink.com 1.10,2013-06-04 11:02:00,
2013-06-04 07:17:00,74.5,74.0,29.96,East,93,0.0,1.0,98,0.00,,,0.16,weatherlink.com 1.10,2013-06-04 11:17:00,
2013-06-04 07:32:00,74.7,74.0,29.96,ESE,111,0.0,1.0,98,0.00,,,0.16,weatherlink.com 1.10,2013-06-04 11:32:00,
2013-06-04 07:47:00,75.3,74.0,29.96,ESE,120,0.0,0.0,97,0.00,,,0.16,weatherlink.com 1.10,2013-06-04 11:47:00,
2013-06-04 08:02:00,75.8,75.0,29.97,East,86,0.0,0.0,97,0.00,,,0.16,weatherlink.com 1.10,2013-06-04 12:02:00,
2013-06-04 08:17:00,76.4,76.0,29.97,ESE,105,0.0,2.0,97,0.00,,,0.16,weatherlink.com 1.10,2013-06-04 12:17:00,
2013-06-04 08:32:00,76.7,76.0,29.98,East,98,0.0,2.0,97,0.00,,,0.16,weatherlink.com 1.10,2013-06-04 12:32:00,
2013-06-04 08:47:00,77.3,76.0,29.98,ESE,105,0.0,1.0,95,0.00,,,0.16,weatherlink.com 1.10,2013-06-04 12:47:00,
2013-06-04 09:02:00,78.3,77.0,29.99,ESE,106,0.0,1.0,94,0.00,,,0.16,weatherlink.com 1.10,2013-06-04 13:02:00,
2013-06-04 09:17:00,79.2,77.0,30.00,ESE,104,0.0,1.0,92,0.00,,,0.16,weatherlink.com 1.10,2013-06-04 13:17:00,
2013-06-04 09:32:00,79.3,76.0,30.00,East,101,1.0,1.0,90,0.00,,,0.16,weatherlink.com 1.10,2013-06-04 13:32:00,
2013-06-04 09:47:00,79.2,77.0,30.01,SE,126,0.0,1.0,92,0.00,,,0.16,weatherlink.com 1.10,2013-06-04 13:47:00,
2013-06-04 10:02:00,79.8,77.0,30.02,ESE,104,0.0,2.0,91,0.00,,,0.16,weatherlink.com 1.10,2013-06-04 14:02:00,
2013-06-04 10:17:00,79.9,77.0,30.02,ESE,110,0.0,1.0,90,0.00,,,0.16,weatherlink.com 1.10,2013-06-04 14:17:00,
2013-06-04 10:32:00,80.0,77.0,30.03,SSE,148,0.0,2.0,90,0.01,,,0.17,weatherlink.com 1.10,2013-06-04 14:32:00,
2013-06-04 10:47:00,81.2,78.0,30.03,East,96,1.0,1.0,91,0.01,,,0.17,weatherlink.com 1.10,2013-06-04 14:47:00,
2013-06-04 11:03:00,81.0,78.0,30.03,SE,125,0.0,2.0,89,0.01,,,0.17,weatherlink.com 1.10,2013-06-04 15:03:00,
2013-06-04 11:17:00,81.5,78.0,30.03,East,81,0.0,2.0,88,0.01,,,0.17,weatherlink.com 1.10,2013-06-04 15:17:00,
2013-06-04 11:32:00,82.3,79.0,30.02,ENE,71,0.0,2.0,88,0.00,,,0.17,weatherlink.com 1.10,2013-06-04 15:32:00,
2013-06-04 11:47:00,82.5,78.0,30.02,ENE,71,2.0,3.0,86,0.00,,,0.17,weatherlink.com 1.10,2013-06-04 15:47:00,
2013-06-04 12:02:00,82.8,78.0,30.02,East,92,2.0,4.0,84,0.00,,,0.17,weatherlink.com 1.10,2013-06-04 16:02:00,
2013-06-04 12:17:00,83.3,78.0,30.01,ESE,106,2.0,3.0,83,0.00,,,0.17,weatherlink.com 1.10,2013-06-04 16:17:00,
2013-06-04 12:32:00,81.6,75.0,30.02,ESE,114,5.0,11.0,81,0.00,,,0.17,weatherlink.com 1.10,2013-06-04 16:32:00,
2013-06-04 12:47:00,81.3,75.0,30.01,SE,134,1.0,6.0,82,0.00,,,0.17,weatherlink.com 1.10,2013-06-04 16:47:00,
2013-06-04 13:02:00,82.1,75.0,30.01,East,91,2.0,6.0,79,0.00,,,0.17,weatherlink.com 1.10,2013-06-04 17:02:00,
2013-06-04 13:17:00,84.3,76.0,30.00,ESE,117,2.0,5.0,75,0.00,,,0.17,weatherlink.com 1.10,2013-06-04 17:17:00,
2013-06-04 13:32:00,84.2,75.0,30.00,East,82,2.0,6.0,74,0.00,,,0.17,weatherlink.com 1.10,2013-06-04 17:32:00,
2013-06-04 13:47:00,84.1,75.0,30.00,ESE,103,1.0,7.0,74,0.00,,,0.17,weatherlink.com 1.10,2013-06-04 17:47:00,
2013-06-04 14:02:00,84.5,74.0,30.00,East,97,4.0,6.0,71,0.00,,,0.17,weatherlink.com 1.10,2013-06-04 18:02:00,
2013-06-04 14:17:00,85.1,75.0,29.99,ESE,103,2.0,4.0,72,0.00,,,0.00,weatherlink.com 1.10,2013-06-04 18:17:00,
2013-06-04 14:32:00,85.2,73.0,29.98,SE,124,1.0,5.0,67,0.00,,,0.00,weatherlink.com 1.10,2013-06-04 18:32:00,
2013-06-04 14:47:00,85.3,74.0,29.97,East,86,2.0,5.0,68,0.00,,,0.00,weatherlink.com 1.10,2013-06-04 18:47:00,
2013-06-04 15:02:00,85.4,73.0,29.97,ENE,77,1.0,7.0,66,0.00,,,0.00,weatherlink.com 1.10,2013-06-04 19:02:00,
2013-06-04 15:17:00,85.8,75.0,29.96,East,97,1.0,5.0,69,0.00,,,0.00,weatherlink.com 1.10,2013-06-04 19:17:00,
2013-06-04 15:32:00,86.3,75.0,29.97,SSE,159,0.0,5.0,68,0.00,,,0.00,weatherlink.com 1.10,2013-06-04 19:32:00,
2013-06-04 15:47:00,85.6,74.0,29.97,ESE,112,3.0,5.0,69,0.00,,,0.00,weatherlink.com 1.10,2013-06-04 19:47:00,
2013-06-04 16:02:00,85.1,75.0,29.97,ESE,121,2.0,7.0,72,0.00,,,0.00,weatherlink.com 1.10,2013-06-04 20:02:00,
2013-06-04 16:17:00,85.2,76.0,29.97,East,87,1.0,5.0,74,0.00,,,0.00,weatherlink.com 1.10,2013-06-04 20:17:00,
2013-06-04 16:32:00,84.2,75.0,29.97,East,98,3.0,5.0,74,0.00,,,0.00,weatherlink.com 1.10,2013-06-04 20:32:00,
2013-06-04 16:48:00,83.4,74.0,29.97,SE,131,2.0,7.0,74,0.00,,,0.00,weatherlink.com 1.10,2013-06-04 20:48:00,
2013-06-04 17:03:00,83.2,74.0,29.97,East,96,1.0,5.0,73,0.00,,,0.00,weatherlink.com 1.10,2013-06-04 21:03:00,
2013-06-04 17:18:00,83.2,75.0,29.97,East,86,5.0,5.0,76,0.00,,,0.00,weatherlink.com 1.10,2013-06-04 21:18:00,
2013-06-04 17:33:00,82.7,76.0,29.96,East,86,3.0,7.0,79,0.00,,,0.00,weatherlink.com 1.10,2013-06-04 21:33:00,
2013-06-04 17:48:00,82.2,76.0,29.96,ESE,117,4.0,6.0,81,0.00,,,0.00,weatherlink.com 1.10,2013-06-04 21:48:00,
2013-06-04 18:03:00,81.8,76.0,29.96,East,85,2.0,5.0,83,0.00,,,0.00,weatherlink.com 1.10,2013-06-04 22:03:00,
2013-06-04 18:18:00,81.5,76.0,29.96,ESE,104,2.0,5.0,83,0.00,,,0.00,weatherlink.com 1.10,2013-06-04 22:18:00,
2013-06-04 18:33:00,81.3,76.0,29.96,East,101,4.0,4.0,84,0.00,,,0.00,weatherlink.com 1.10,2013-06-04 22:33:00,
2013-06-04 18:48:00,80.9,76.0,29.97,ESE,105,3.0,5.0,86,0.00,,,0.00,weatherlink.com 1.10,2013-06-04 22:48:00,
2013-06-04 19:03:00,80.4,76.0,29.97,East,89,1.0,4.0,87,0.00,,,0.00,weatherlink.com 1.10,2013-06-04 23:03:00,
2013-06-04 19:18:00,80.2,76.0,29.98,East,87,2.0,2.0,88,0.01,,,0.01,weatherlink.com 1.10,2013-06-04 23:18:00,
2013-06-04 19:33:00,79.9,77.0,29.99,ESE,117,1.0,2.0,89,0.01,,,0.01,weatherlink.com 1.10,2013-06-04 23:33:00,
2013-06-04 19:48:00,79.8,76.0,29.99,East,91,0.0,2.0,89,0.01,,,0.01,weatherlink.com 1.10,2013-06-04 23:48:00,
2013-06-04 20:03:00,79.2,76.0,29.99,East,92,0.0,0.0,91,0.01,,,0.01,weatherlink.com 1.10,2013-06-05 00:03:00,
2013-06-04 20:18:00,79.3,77.0,30.00,East,99,1.0,2.0,92,0.00,,,0.01,weatherlink.com 1.10,2013-06-05 00:18:00,
2013-06-04 20:33:00,79.3,77.0,29.99,East,87,0.0,3.0,91,0.00,,,0.01,weatherlink.com 1.10,2013-06-05 00:33:00,
2013-06-04 20:48:00,79.2,77.0,30.00,ESE,105,1.0,2.0,92,0.00,,,0.01,weatherlink.com 1.10,2013-06-05 00:48:00,
2013-06-04 21:03:00,79.5,77.0,30.00,ESE,103,3.0,3.0,91,0.00,,,0.01,weatherlink.com 1.10,2013-06-05 01:03:00,
2013-06-04 21:18:00,79.4,77.0,30.00,East,84,2.0,2.0,91,0.00,,,0.01,weatherlink.com 1.10,2013-06-05 01:18:00,
2013-06-04 21:33:00,79.4,76.0,30.00,ESE,102,1.0,3.0,90,0.00,,,0.01,weatherlink.com 1.10,2013-06-05 01:33:00,
2013-06-04 21:48:00,79.5,76.0,30.00,East,96,1.0,2.0,89,0.00,,,0.01,weatherlink.com 1.10,2013-06-05 01:48:00,
2013-06-04 22:03:00,79.3,76.0,30.00,ESE,104,2.0,3.0,90,0.00,,,0.01,weatherlink.com 1.10,2013-06-05 02:03:00,
2013-06-04 22:18:00,79.4,76.0,30.00,East,94,1.0,3.0,88,0.00,,,0.01,weatherlink.com 1.10,2013-06-05 02:18:00,
2013-06-04 22:33:00,79.4,75.0,30.00,ESE,114,1.0,2.0,87,0.00,,,0.01,weatherlink.com 1.10,2013-06-05 02:33:00,
2013-06-04 22:48:00,79.2,75.0,30.00,ESE,110,2.0,2.0,87,0.00,,,0.01,weatherlink.com 1.10,2013-06-05 02:48:00,
2013-06-04 23:03:00,79.4,75.0,30.00,ESE,103,0.0,3.0,86,0.00,,,0.01,weatherlink.com 1.10,2013-06-05 03:03:00,
2013-06-04 23:18:00,79.5,75.0,29.99,SE,133,2.0,3.0,87,0.00,,,0.01,weatherlink.com 1.10,2013-06-05 03:18:00,
2013-06-04 23:33:00,79.9,75.0,30.00,ESE,114,0.0,2.0,85,0.00,,,0.01,weatherlink.com 1.10,2013-06-05 03:33:00,
2013-06-04 23:48:00,80.0,76.0,30.00,ESE,103,1.0,2.0,86,0.00,,,0.01,weatherlink.com 1.10,2013-06-05 03:48:00,